(102621) = 1999 VB202 = 1999 VO25

Discovered at Saji on 1999-11-13 by Saji.

Orbit

Orbit type: Main Belt

Note: WebGL enabled browser required.

epoch2024-03-31.0
epoch JD2460400.5
perihelion date2021-08-28.52667
perihelion JD2459455.02667
argument of perihelion (°)80.79801
ascending node (°)310.15197
inclination (°)1.19795
eccentricity0.0954679
perihelion distance (AU)2.4310722
Tisserand w.r.t. Jupiter3.4
ΔV w.r.t. Earth (km/sec)9.8
semimajor axis (AU)2.6876572
mean anomaly (°)211.49120
mean daily motion (°/day)0.22368820
aphelion distance (AU)2.944
period (years)4.41
P-vector [x]0.85745164
P-vector [y]0.46351473
P-vector [z]0.22345196
Q-vector [x]-0.51431637
Q-vector [y]0.78549724
Q-vector [z]0.34419872
absolute magnitude16.14
phase slope0.15
uncertainty0
referenceMPEC 2024-D06
observations used696
oppositions16
arc length (days)8622
first opposition used1999
last opposition used2023
residual rms (arc-secs)0.73
perturbers coarse indicatorM-v
perturbers precise indicator003Ek
first observation date used1999-10-12.0
last observation date used2023-05-21.0
computer nameMPCLINUX
JD of orbit computation2456789.227680
perihelion JD uncertainty (days)1.0384E-04
argument of perihelion uncertainty (°)1.7189E-04
ascending node uncertainty (°)1.6991E-04
inclination uncertainty (°)3.1714E-06
eccentricity uncertainty 4.1996E-08
perihelion distance uncertainty (AU)1.1106E-07
Minimum Orbit Intersection Distances (in AU)
for orbit epoch: 2460400.5, reference: E2024-D06
Mercury2.09803
Venus1.70888
Earth1.43689
Mars0.95688
Jupiter2.44509
Saturn6.4397
Uranus15.5626
Neptune27.3949

Observations

703 total observations over interval: 1999 10 12.27913 – 2023 05 21.164401
These data are available for download (format description).

Date (UT) J2000 RA J2000 Dec Magn Location Ref
1999 10 12.27913 03 57 32.69 +22 18 17.0 19.1   704 – Lincoln Laboratory ETS, New Mexico MPS 15528
1999 10 12.29280 03 57 32.46 +22 18 18.1 19.4   704 – Lincoln Laboratory ETS, New Mexico MPS 15528
1999 10 12.30644 03 57 32.20 +22 18 17.1 19.8   704 – Lincoln Laboratory ETS, New Mexico MPS 15528
1999 10 12.32061 03 57 31.97 +22 18 18.0 19.4   704 – Lincoln Laboratory ETS, New Mexico MPS 15528
1999 10 12.33441 03 57 31.65 +22 18 17.2 19.4   704 – Lincoln Laboratory ETS, New Mexico MPS 15528
1999 11 03.35301 03 44 42.46 +21 48 00.4 19.6   704 – Lincoln Laboratory ETS, New Mexico MPS 15599
1999 11 03.36906 03 44 41.57 +21 47 58.1 19.0   704 – Lincoln Laboratory ETS, New Mexico MPS 15599
1999 11 03.38513 03 44 40.83 +21 47 55.0 19.2   704 – Lincoln Laboratory ETS, New Mexico MPS 15599
1999 11 09.25407 03 39 27.33 +21 31 47.8 19.1 R 703 – Catalina Sky Survey MPS 8662
1999 11 09.26634 03 39 26.57 +21 31 43.7 19.0 R 703 – Catalina Sky Survey MPS 8662
1999 11 09.27854 03 39 25.88 +21 31 43.0 18.8 R 703 – Catalina Sky Survey MPS 8662
1999 11 09.29080 03 39 25.16 +21 31 40.5 18.8 R 703 – Catalina Sky Survey MPS 8662
1999 11 13.63162 03 35 18.41 +21 17 55.2 18.5 V 867 – Saji Observatory MPS 7463
1999 11 13.63857 03 35 17.99 +21 17 53.8   867 – Saji Observatory MPS 7463
1999 11 13.64551 03 35 17.55 +21 17 52.5   867 – Saji Observatory MPS 7463
1999 11 13.65245 03 35 17.16 +21 17 51.2   867 – Saji Observatory MPS 7463
1999 11 14.28392 03 34 40.96 +21 15 45.2 18.6   704 – Lincoln Laboratory ETS, New Mexico MPS 8662
1999 11 14.29821 03 34 40.10 +21 15 42.2 18.7   704 – Lincoln Laboratory ETS, New Mexico MPS 8662
1999 11 14.31249 03 34 39.25 +21 15 39.3 19.0   704 – Lincoln Laboratory ETS, New Mexico MPS 8662
1999 11 14.32675 03 34 38.36 +21 15 36.6 18.9   704 – Lincoln Laboratory ETS, New Mexico MPS 8662
1999 11 14.34104 03 34 37.54 +21 15 34.0 18.9   704 – Lincoln Laboratory ETS, New Mexico MPS 8662
1999 11 14.51218 03 34 27.91 +21 14 59.1 18.5 V 867 – Saji Observatory MPS 7463
1999 11 14.51912 03 34 27.54 +21 14 57.3   867 – Saji Observatory MPS 7463
1999 11 14.55523 03 34 25.33 +21 14 49.9   867 – Saji Observatory MPS 7463
1999 11 16.22106 03 32 48.91 +21 09 11.2 18.5   704 – Lincoln Laboratory ETS, New Mexico MPS 8662
1999 11 16.23532 03 32 48.04 +21 09 08.0 19.1   704 – Lincoln Laboratory ETS, New Mexico MPS 8662
1999 11 16.24957 03 32 47.20 +21 09 05.7 19.2   704 – Lincoln Laboratory ETS, New Mexico MPS 8662
1999 11 16.26381 03 32 46.29 +21 09 02.0 19.4   704 – Lincoln Laboratory ETS, New Mexico MPS 8662
1999 11 16.27810 03 32 45.43 +21 08 58.5 18.6   704 – Lincoln Laboratory ETS, New Mexico MPS 8662
1999 12 07.21861 03 14 20.78 +19 54 04.6 19.4   704 – Lincoln Laboratory ETS, New Mexico MPS 7864
1999 12 07.23319 03 14 20.11 +19 54 00.7 19.5   704 – Lincoln Laboratory ETS, New Mexico MPS 7864
1999 12 07.26231 03 14 18.87 +19 53 53.6 20.0   704 – Lincoln Laboratory ETS, New Mexico MPS 7864
1999 12 07.27686 03 14 18.14 +19 53 52.3 19.3   704 – Lincoln Laboratory ETS, New Mexico MPS 7864
1999 12 08.25964 03 13 37.35 +19 50 38.5 19.0   704 – Lincoln Laboratory ETS, New Mexico MPS 7864
1999 12 08.27205 03 13 36.74 +19 50 35.5 19.3   704 – Lincoln Laboratory ETS, New Mexico MPS 7864
1999 12 08.28448 03 13 36.22 +19 50 33.9 19.4   704 – Lincoln Laboratory ETS, New Mexico MPS 7864
1999 12 08.29683 03 13 35.67 +19 50 31.3 19.3   704 – Lincoln Laboratory ETS, New Mexico MPS 7864
1999 12 08.30922 03 13 35.15 +19 50 29.0 19.7   704 – Lincoln Laboratory ETS, New Mexico MPS 7864
2000 12 23.498500 11 26 06.742 +03 08 36.18 21.74 V 645 – Apache Point-Sloan Digital Sky Survey MPS 90382
2000 12 23.501972 11 26 06.844 +03 08 35.37 22.67   645 – Apache Point-Sloan Digital Sky Survey MPS 90382
2003 09 17.28054 00 05 02.29 +02 10 38.3 20.5 R 683 – Goodricke-Pigott Observatory, Tucson MPS 84460
2003 09 17.29579 00 05 01.63 +02 10 35.2 19.6 R 683 – Goodricke-Pigott Observatory, Tucson MPS 84460
2003 09 17.30734 00 05 01.01 +02 10 32.6 21.0 R 683 – Goodricke-Pigott Observatory, Tucson MPS 84460
2003 09 18.31093 00 04 11.74 +02 05 43.2 19.5 V 691 – Steward Observatory, Kitt Peak-Spacewatch MPS 84460
2003 09 18.33823 00 04 10.34 +02 05 35.4 19.6 V 691 – Steward Observatory, Kitt Peak-Spacewatch MPS 84460
2003 09 18.36552 00 04 08.95 +02 05 27.6 19.5 V 691 – Steward Observatory, Kitt Peak-Spacewatch MPS 84460
2003 09 19.30922 00 03 22.40 +02 00 54.0 19.7   704 – Lincoln Laboratory ETS, New Mexico MPS 85042
2003 09 19.32152 00 03 21.63 +02 00 49.2 19.8   704 – Lincoln Laboratory ETS, New Mexico MPS 85042
2003 09 19.33357 00 03 21.18 +02 00 45.7 19.7   704 – Lincoln Laboratory ETS, New Mexico MPS 85042
2003 09 19.34577 00 03 20.51 +02 00 42.5 19.6   704 – Lincoln Laboratory ETS, New Mexico MPS 85042
2003 09 21.26733 00 01 45.03 +01 51 13.2 20.5 R 683 – Goodricke-Pigott Observatory, Tucson MPS 86058
2003 09 21.28271 00 01 44.10 +01 51 11.6 20.4 R 683 – Goodricke-Pigott Observatory, Tucson MPS 86058
2003 09 21.29607 00 01 43.52 +01 51 06.5 20.3 R 683 – Goodricke-Pigott Observatory, Tucson MPS 86058
2003 09 22.26399 00 00 54.95 +01 46 16.9 19.5 R 683 – Goodricke-Pigott Observatory, Tucson MPS 86058
2003 09 22.27605 00 00 54.43 +01 46 13.6 22.3 R 683 – Goodricke-Pigott Observatory, Tucson MPS 86058
2003 09 22.28944 00 00 53.67 +01 46 07.6 20.2 R 683 – Goodricke-Pigott Observatory, Tucson MPS 86058
2003 09 23.91572 23 59 32.08 +01 37 54.8 18.5   947 – Saint-Sulpice MPS 85042
2003 09 23.94180 23 59 30.66 +01 37 47.5   947 – Saint-Sulpice MPS 85042
2003 09 23.96759 23 59 29.43 +01 37 39.7   947 – Saint-Sulpice MPS 85042
2003 09 26.22797 23 57 35.94 +01 26 12.6 19.3   704 – Lincoln Laboratory ETS, New Mexico MPS 86058
2003 09 26.24050 23 57 35.29 +01 26 08.6 19.2   704 – Lincoln Laboratory ETS, New Mexico MPS 86058
2003 09 26.25315 23 57 34.62 +01 26 04.8 19.5   704 – Lincoln Laboratory ETS, New Mexico MPS 86058
2003 09 26.26580 23 57 33.95 +01 26 00.5 19.1   704 – Lincoln Laboratory ETS, New Mexico MPS 86058
2003 09 26.27831 23 57 33.30 +01 25 57.2 19.4   704 – Lincoln Laboratory ETS, New Mexico MPS 86058
2003 09 28.25389 23 55 54.88 +01 15 55.4 19.5 V 291 – LPL/Spacewatch II MPS 86058
2003 09 28.27704 23 55 53.70 +01 15 48.5 20.1 V 291 – LPL/Spacewatch II MPS 86058
2003 09 28.30004 23 55 52.51 +01 15 41.3 19.3 V 291 – LPL/Spacewatch II MPS 86058
2003 09 29.20633 23 55 07.89 +01 11 06.1 19.4 V 691 – Steward Observatory, Kitt Peak-Spacewatch MPS 86058
2003 09 29.22750 23 55 06.74 +01 10 59.0 19.1   704 – Lincoln Laboratory ETS, New Mexico MPS 86058
2003 09 29.23970 23 55 06.19 +01 10 56.0 19.8 V 691 – Steward Observatory, Kitt Peak-Spacewatch MPS 86058
2003 09 29.24030 23 55 06.10 +01 10 55.4 19.8   704 – Lincoln Laboratory ETS, New Mexico MPS 86058
2003 09 29.25318 23 55 05.37 +01 10 52.3 19.6   704 – Lincoln Laboratory ETS, New Mexico MPS 86058
2003 09 29.26609 23 55 04.81 +01 10 48.2 19.6   704 – Lincoln Laboratory ETS, New Mexico MPS 86058
2003 09 29.27856 23 55 04.12 +01 10 44.4 19.6   704 – Lincoln Laboratory ETS, New Mexico MPS 86058
2003 09 29.28061 23 55 04.08 +01 10 43.5 19.6 V 691 – Steward Observatory, Kitt Peak-Spacewatch MPS 86058
2003 09 29.290340 23 55 03.550 +01 10 40.28 19.59 V 645 – Apache Point-Sloan Digital Sky Survey MPS 136838
2003 09 29.293812 23 55 03.372 +01 10 39.18 20.48   645 – Apache Point-Sloan Digital Sky Survey MPS 136838
2003 10 19.206660 23 41 18.463 -00 17 03.75 19.88 V 645 – Apache Point-Sloan Digital Sky Survey MPS 136838
2003 10 19.210132 23 41 18.350 -00 17 04.49 20.87   645 – Apache Point-Sloan Digital Sky Survey MPS 136838
2003 10 22.197960 23 39 54.204 -00 26 33.21 20.15 V 645 – Apache Point-Sloan Digital Sky Survey MPS 136838
2003 10 22.201432 23 39 54.103 -00 26 33.89 21.06   645 – Apache Point-Sloan Digital Sky Survey MPS 136838
2003 10 24.16097 23 39 06.10 -00 32 03.8 20.1   704 – Lincoln Laboratory ETS, New Mexico MPS 87692
2003 10 24.17291 23 39 05.90 -00 32 05.8 19.3   704 – Lincoln Laboratory ETS, New Mexico MPS 87692
2003 10 24.18511 23 39 05.51 -00 32 08.3 20.3   704 – Lincoln Laboratory ETS, New Mexico MPS 87692
2003 10 24.193320 23 39 05.352 -00 32 09.79 20.18 V 645 – Apache Point-Sloan Digital Sky Survey MPS 136838
